Find Pratham

NORAD ID: 41783 Int'l Des: 2016-059 Owner: IITB Country: IN operational
LEOCIRCULARRETROGRADESSO

实时位置

正在加载3D地球...

关于 Pratham

正在加载描述...

即将过境

Passes for default location (London). Set your location on the main map for personalized predictions.

高度历史

Loading altitude history...

两行轨道根数

1 41783U 16059A 26104.95373640 .00000447 00000-0 87168-4 0 9993
2 41783 97.8327 104.5958 0032605 61.4677 298.9804 14.67106847510246
Epoch: Apr 14, 2026 • Age: 6 hours

当前状态

高度 670.8 km
速度 7.53 km/s
星下点 44.46°N, 23.02°E
发射日期 Sep 26, 2016
运行时间 9.5 years
类型 other

技术详情

分类 Payload
质量 10.00 kg
干质量 10.00 kg
总质量 10.00 kg
长度 0.47 m
直径 0.31 m
跨度 0.47 m
形状 Box
制造商 IITB
平台类型 Pratham
阶段状态 In Orbit
所有者/国家 IITB/IN

Most Searched